GW4934 Weather Reports


time (UTC)temp
C
wind
direction
speed
KPH
gust
KPH
rain 1hr
cm
rain 24hr
cm
rain mn
cm
humidity
%
barometer
mb
20260507223414 29 25 0.0 0.0 0.00 0.00 0.00 87 1007.0
20260507222913 29 25 0.0 0.0 0.00 0.00 0.00 87 1007.0
20260507222413 29 25 0.0 0.0 0.00 0.00 0.00 87 1007.0
20260507221914 29 54 0.0 3.2 0.00 0.00 0.00 87 1007.0
20260507221414 29 57 0.0 4.8 0.00 0.00 0.00 87 1007.0
20260507220915 29 68 0.0 4.8 0.00 0.00 0.00 87 1007.0
20260507220413 29 60 3.2 4.8 0.00 0.00 0.00 87 1007.0
20260507215913 29 81 0.0 0.0 0.00 0.00 0.00 87 1007.0
20260507215413 29 86 0.0 0.0 0.00 0.00 0.00 87 1007.0
20260507214913 29 86 0.0 4.8 0.00 0.00 0.00 87 1007.0
20260507214415 29 86 0.0 6.4 0.00 0.00 0.00 87 1007.0
20260507213913 29 55 4.8 6.4 0.00 0.00 0.00 87 1007.0
20260507213414 29 86 0.0 1.6 0.00 0.00 0.00 87 1007.0
20260507212915 29 91 0.0 1.6 0.00 0.00 0.00 87 1007.0
20260507212417 29 67 0.0 6.4 0.00 0.00 0.00 87 1007.0
20260507211916 29 75 0.0 9.7 0.00 0.00 0.00 87 1007.0
20260507211414 29 65 0.0 11.3 0.00 0.00 0.00 87 1007.0
20260507210913 29 56 0.0 11.3 0.00 0.00 0.00 87 1007.0
20260507210414 29 104 0.0 1.6 0.00 0.00 0.00 88 1007.0
20260507205914 29 76 0.0 1.6 0.00 0.00 0.00 88 1007.0
20260507205413 29 77 0.0 1.6 0.00 0.00 0.00 87 1007.0
20260507204914 29 75 0.0 1.6 0.00 0.00 0.00 87 1007.0
20260507204416 29 86 0.0 1.6 0.00 0.00 0.00 87 1007.0
20260507203916 29 72 0.0 0.0 0.00 0.00 0.00 87 1007.0
20260507203416 29 139 0.0 0.0 0.00 0.00 0.00 87 1007.0
20260507202914 29 65 0.0 6.4 0.00 0.00 0.00 87 1007.0
20260507202415 29 84 0.0 6.4 0.00 0.00 0.00 87 1007.0
20260507201914 29 84 0.0 8.0 0.00 0.00 0.00 87 1007.0
20260507201413 29 82 3.2 4.8 0.00 0.00 0.00 87 1007.0
20260507200915 29 89 0.0 8.0 0.00 0.00 0.00 87 1007.0
20260507200414 29 84 0.0 8.0 0.00 0.00 0.00 87 1008.0
20260507195913 29 76 0.0 8.0 0.00 0.00 0.00 87 1008.0
20260507195416 29 94 0.0 12.9 0.00 0.00 0.00 87 1008.0
20260507194914 29 74 4.8 12.9 0.00 0.00 0.00 87 1008.0
20260507194415 29 96 6.4 9.7 0.00 0.00 0.00 87 1008.0
20260507193918 29 72 0.0 8.0 0.00 0.00 0.00 87 1008.0
20260507193415 29 77 0.0 8.0 0.00 0.00 0.00 87 1008.0
20260507192915 29 90 0.0 6.4 0.00 0.00 0.00 87 1008.0
20260507192415 29 86 0.0 9.7 0.00 0.00 0.00 88 1008.0
20260507191917 29 96 0.0 9.7 0.00 0.00 0.00 88 1008.0
20260507191416 29 98 0.0 9.7 0.00 0.00 0.00 87 1008.0
20260507190914 30 127 0.0 8.0 0.00 0.00 0.00 87 1008.0
20260507190416 30 91 0.0 12.9 0.00 0.00 0.00 87 1008.0
20260507185913 30 113 0.0 12.9 0.00 0.00 0.00 87 1008.0
20260507185414 30 102 0.0 12.9 0.00 0.00 0.00 87 1008.0
20260507184915 30 56 4.8 12.9 0.00 0.00 0.00 87 1008.0
20260507184417 30 117 0.0 12.9 0.00 0.00 0.00 86 1008.0
20260507183915 30 82 0.0 8.0 0.00 0.00 0.00 86 1008.0
20260507183416 30 122 4.8 19.3 0.00 0.00 0.00 86 1008.0
20260507182917 30 82 8.0 19.3 0.00 0.00 0.00 85 1009.0
20260507182416 30 79 6.4 14.5 0.00 0.00 0.00 85 1009.0
20260507181915 30 96 1.6 16.1 0.00 0.00 0.00 85 1009.0
20260507181419 30 89 9.7 16.1 0.00 0.00 0.00 85 1009.0
20260507180915 30 101 3.2 16.1 0.00 0.00 0.00 85 1009.0
20260507180417 30 82 6.4 19.3 0.00 0.00 0.00 85 1009.0
20260507175915 30 76 0.0 19.3 0.00 0.00 0.00 85 1009.0
20260507175416 30 106 0.0 11.3 0.00 0.00 0.00 86 1009.0
20260507174916 30 134 0.0 11.3 0.00 0.00 0.00 86 1009.0
20260507174416 30 121 1.6 14.5 0.00 0.00 0.00 86 1009.0
20260507173915 30 108 3.2 17.7 0.00 0.00 0.00 86 1009.0
20260507173415 30 88 8.0 17.7 0.00 0.00 0.00 86 1009.0
20260507172916 30 70 9.7 17.7 0.00 0.00 0.00 86 1009.0
20260507172415 30 91 3.2 17.7 0.00 0.00 0.00 86 1009.0
20260507171914 30 82 4.8 17.7 0.00 0.00 0.00 86 1009.0
20260507171414 30 76 6.4 14.5 0.00 0.00 0.00 86 1009.0
20260507170914 30 101 6.4 14.5 0.00 0.00 0.00 86 1009.0
20260507170416 30 81 1.6 9.7 0.00 0.00 0.00 86 1009.0
20260507165915 30 100 0.0 12.9 0.00 0.00 0.00 86 1009.0
20260507165417 30 88 8.0 14.5 0.00 0.00 0.00 86 1009.0
20260507164915 30 93 6.4 14.5 0.00 0.00 0.00 85 1009.0
20260507164413 30 96 0.0 8.0 0.00 0.00 0.00 84 1009.0
20260507163914 30 102 0.0 11.3 0.00 0.00 0.00 84 1009.0
20260507163415 30 61 0.0 16.1 0.00 0.00 0.00 84 1009.0
20260507162917 30 74 0.0 16.1 0.00 0.00 0.00 84 1009.0
20260507162415 30 70 4.8 16.1 0.00 0.00 0.00 84 1009.0
20260507161915 30 116 0.0 11.3 0.00 0.00 0.00 84 1009.0
20260507161417 30 77 6.4 9.7 0.00 0.00 0.00 84 1009.0
20260507160919 30 113 4.8 9.7 0.00 0.00 0.00 84 1009.0
20260507160416 30 73 4.8 9.7 0.00 0.00 0.00 84 1009.0
20260507155914 30 72 9.7 11.3 0.00 0.00 0.00 84 1009.0
20260507155417 30 73 4.8 11.3 0.00 0.00 0.00 85 1009.0
20260507154916 30 92 4.8 11.3 0.00 0.00 0.00 85 1009.0
20260507154415 30 50 6.4 9.7 0.00 0.00 0.00 85 1008.0
20260507153915 30 86 0.0 9.7 0.00 0.00 0.00 85 1008.0
20260507153416 30 101 0.0 9.7 0.00 0.00 0.00 85 1008.0
20260507152915 30 91 3.2 9.7 0.00 0.00 0.00 84 1008.0
20260507152418 30 103 0.0 11.3 0.00 0.00 0.00 84 1008.0
20260507151915 30 57 8.0 14.5 0.00 0.00 0.00 84 1008.0
20260507151416 30 88 0.0 14.5 0.00 0.00 0.00 83 1008.0
20260507150917 30 75 11.3 14.5 0.00 0.00 0.00 83 1008.0
20260507150417 30 69 9.7 16.1 0.00 0.00 0.00 84 1007.0
20260507145913 30 80 1.6 17.7 0.00 0.00 0.00 84 1007.0
20260507145417 30 84 1.6 17.7 0.00 0.00 0.00 84 1007.0
20260507144915 30 53 8.0 17.7 0.00 0.00 0.00 84 1007.0
20260507144415 30 68 6.4 17.7 0.00 0.00 0.00 84 1007.0
20260507143916 30 91 11.3 19.3 0.00 0.00 0.00 85 1007.0
20260507143416 30 68 0.0 19.3 0.00 0.00 0.00 85 1007.0
20260507142916 30 91 4.8 19.3 0.00 0.00 0.00 85 1007.0
20260507142416 30 66 1.6 12.9 0.00 0.00 0.00 85 1006.0
20260507141915 30 86 11.3 16.1 0.00 0.00 0.00 85 1006.0
20260507141416 30 78 4.8 16.1 0.00 0.00 0.00 84 1006.0
20260507140914 30 110 9.7 16.1 0.00 0.00 0.00 84 1006.0
20260507140416 30 79 6.4 14.5 0.00 0.00 0.00 83 1006.0
20260507135915 30 70 11.3 12.9 0.00 0.00 0.00 83 1006.0
20260507135415 30 60 4.8 17.7 0.00 0.00 0.00 84 1006.0
20260507134915 30 77 6.4 17.7 0.00 0.00 0.00 84 1006.0
20260507134419 30 96 0.0 16.1 0.00 0.00 0.00 85 1006.0
20260507133915 30 86 8.0 17.7 0.00 0.00 0.00 84 1006.0
20260507133420 30 86 14.5 17.7 0.00 0.00 0.00 84 1006.0
20260507132916 30 75 8.0 12.9 0.00 0.00 0.00 84 1006.0
20260507132415 30 66 0.0 16.1 0.00 0.00 0.00 84 1006.0
20260507131916 30 80 4.8 19.3 0.00 0.00 0.00 84 1006.0
20260507131417 30 98 16.1 19.3 0.00 0.00 0.00 84 1005.0
20260507130915 30 63 12.9 12.9 0.00 0.00 0.00 84 1006.0
20260507130417 30 79 0.0 14.5 0.00 0.00 0.00 83 1005.0
20260507125917 30 67 3.2 14.5 0.00 0.00 0.00 83 1005.0
20260507125417 31 95 4.8 17.7 0.00 0.00 0.00 82 1005.0
20260507124916 31 58 1.6 17.7 0.00 0.00 0.00 82 1005.0
20260507124417 31 63 3.2 14.5 0.00 0.00 0.00 83 1005.0
20260507123917 31 98 0.0 16.1 0.00 0.00 0.00 83 1005.0
20260507123415 31 79 8.0 17.7 0.00 0.00 0.00 82 1005.0
20260507122915 31 86 8.0 17.7 0.00 0.00 0.00 81 1005.0
20260507122414 31 124 9.7 17.7 0.00 0.00 0.00 81 1005.0
20260507121915 31 101 6.4 17.7 0.00 0.00 0.00 81 1005.0
20260507121413 31 75 1.6 17.7 0.00 0.00 0.00 80 1005.0
20260507120913 31 66 9.7 17.7 0.00 0.00 0.00 80 1005.0
20260507120415 31 61 9.7 17.7 0.00 0.00 0.00 80 1005.0
20260507115917 31 96 9.7 16.1 0.00 0.00 0.00 80 1005.0
20260507115416 31 84 9.7 17.7 0.00 0.00 0.00 79 1005.0
20260507114916 31 63 6.4 17.7 0.00 0.00 0.00 79 1005.0
20260507114418 31 90 6.4 17.7 0.00 0.00 0.00 79 1005.0
20260507113915 32 89 3.2 16.1 0.00 0.00 0.00 79 1005.0
20260507113415 31 61 11.3 19.3 0.00 0.00 0.00 79 1005.0
20260507112916 32 113 3.2 19.3 0.00 0.00 0.00 78 1005.0
20260507112416 32 124 3.2 17.7 0.00 0.00 0.00 78 1005.0
20260507111914 32 68 6.4 17.7 0.00 0.00 0.00 78 1005.0
20260507111417 32 92 12.9 20.9 0.00 0.00 0.00 77 1005.0
20260507110916 32 91 11.3 20.9 0.00 0.00 0.00 77 1005.0
20260507110415 32 133 4.8 20.9 0.00 0.00 0.00 79 1005.0
20260507105914 32 98 12.9 17.7 0.00 0.00 0.00 77 1005.0
20260507105416 32 96 6.4 19.3 0.00 0.00 0.00 78 1005.0
20260507104918 32 89 8.0 19.3 0.00 0.00 0.00 77 1005.0
20260507104415 32 79 17.7 20.9 0.00 0.00 0.00 75 1005.0
20260507103914 32 65 9.7 20.9 0.00 0.00 0.00 76 1005.0
20260507103417 32 94 9.7 17.7 0.00 0.00 0.00 77 1005.0
20260507102916 32 68 16.1 19.3 0.00 0.00 0.00 76 1005.0
20260507102416 32 66 0.0 19.3 0.00 0.00 0.00 75 1005.0
20260507101433 32 72 14.5 20.9 0.00 0.00 0.00 75 1005.0
20260507100914 33 72 17.7 20.9 0.00 0.00 0.00 74 1005.0
20260507100415 33 89 1.6 20.9 0.00 0.00 0.00 75 1005.0
20260507095915 33 82 9.7 17.7 0.00 0.00 0.00 73 1005.0
20260507095416 33 39 9.7 16.1 0.00 0.00 0.00 73 1005.0
20260507094917 33 57 0.0 22.5 0.00 0.00 0.00 73 1005.0
20260507094416 33 124 0.0 22.5 0.00 0.00 0.00 73 1005.0
20260507093914 33 53 20.9 24.1 0.00 0.00 0.00 74 1006.0
20260507093415 32 88 11.3 24.1 0.00 0.00 0.00 74 1005.0
20260507092915 33 69 12.9 20.9 0.00 0.00 0.00 74 1005.0
20260507092413 33 41 3.2 20.9 0.00 0.00 0.00 74 1005.0
20260507091915 33 58 0.0 19.3 0.00 0.00 0.00 74 1005.0
20260507091414 33 82 11.3 19.3 0.00 0.00 0.00 74 1005.0
20260507090915 33 112 12.9 22.5 0.00 0.00 0.00 74 1006.0
20260507090415 33 102 17.7 22.5 0.00 0.00 0.00 75 1005.0
20260507085913 33 77 8.0 22.5 0.00 0.00 0.00 74 1006.0
20260507085415 33 50 6.4 22.5 0.00 0.00 0.00 74 1006.0
20260507084917 33 84 14.5 22.5 0.00 0.00 0.00 74 1006.0
20260507084415 33 105 8.0 22.5 0.00 0.00 0.00 74 1006.0
20260507083918 33 93 6.4 24.1 0.00 0.00 0.00 73 1006.0
20260507083415 33 81 11.3 24.1 0.00 0.00 0.00 74 1006.0
20260507082913 33 82 14.5 20.9 0.00 0.00 0.00 75 1006.0
20260507082416 33 65 3.2 20.9 0.00 0.00 0.00 74 1006.0
20260507081918 33 113 9.7 17.7 0.00 0.00 0.00 72 1006.0
20260507081417 33 82 0.0 16.1 0.00 0.00 0.00 72 1006.0
20260507080914 34 85 8.0 20.9 0.00 0.00 0.00 71 1006.0
20260507080416 33 96 0.0 20.9 0.00 0.00 0.00 71 1006.0
20260507075916 33 143 1.6 20.9 0.00 0.00 0.00 71 1006.0
20260507075414 33 93 0.0 20.9 0.00 0.00 0.00 71 1006.0
20260507074918 33 117 12.9 22.5 0.00 0.00 0.00 71 1007.0
20260507074414 33 75 4.8 22.5 0.00 0.00 0.00 70 1007.0
20260507073915 34 69 0.0 16.1 0.00 0.00 0.00 68 1007.0
20260507073417 34 68 11.3 16.1 0.00 0.00 0.00 69 1007.0
20260507072915 34 105 8.0 16.1 0.00 0.00 0.00 68 1007.0
20260507072415 34 68 1.6 14.5 0.00 0.00 0.00 69 1007.0
20260507071915 33 201 0.0 19.3 0.00 0.00 0.00 70 1007.0
20260507071414 33 48 3.2 19.3 0.00 0.00 0.00 70 1007.0
20260507070914 33 160 11.3 22.5 0.00 0.00 0.00 70 1007.0
20260507070417 33 89 12.9 22.5 0.00 0.00 0.00 70 1007.0
20260507065918 33 135 9.7 20.9 0.00 0.00 0.00 70 1007.0
20260507065416 33 118 8.0 20.9 0.00 0.00 0.00 71 1008.0
20260507064915 33 139 0.0 16.1 0.00 0.00 0.00 71 1008.0
20260507064416 33 104 0.0 14.5 0.00 0.00 0.00 72 1008.0
20260507063917 33 80 0.0 6.4 0.00 0.00 0.00 71 1008.0
20260507063415 33 82 0.0 12.9 0.00 0.00 0.00 71 1008.0
20260507062915 33 205 0.0 12.9 0.00 0.00 0.00 72 1008.0
20260507062416 33 91 6.4 11.3 0.00 0.00 0.00 71 1008.0
20260507061920 33 82 3.2 11.3 0.00 0.00 0.00 72 1008.0
20260507061414 33 188 0.0 0.0 0.00 0.00 0.00 75 1008.0
20260507060916 32 113 0.0 0.0 0.00 0.00 0.00 75 1008.0
20260507060413 32 116 0.0 6.4 0.00 0.00 0.00 76 1008.0
20260507055914 32 103 0.0 8.0 0.00 0.00 0.00 77 1008.0
20260507055413 32 151 0.0 11.3 0.00 0.00 0.00 76 1008.0
20260507054914 32 148 0.0 11.3 0.00 0.00 0.00 76 1008.0
20260507054417 32 120 0.0 11.3 0.00 0.00 0.00 75 1008.0
20260507053917 33 131 1.6 11.3 0.00 0.00 0.00 76 1008.0
20260507053415 32 133 1.6 11.3 0.00 0.00 0.00 76 1008.0
20260507052916 32 105 0.0 8.0 0.00 0.00 0.00 76 1008.0
20260507052418 32 90 0.0 8.0 0.00 0.00 0.00 75 1008.0
20260507051913 32 117 0.0 6.4 0.00 0.00 0.00 75 1008.0
20260507051416 32 134 0.0 9.7 0.00 0.00 0.00 75 1008.0
20260507050917 32 108 0.0 9.7 0.00 0.00 0.00 75 1009.0
20260507050418 33 153 0.0 1.6 0.00 0.00 0.00 75 1009.0
20260507045914 33 162 0.0 8.0 0.00 0.00 0.00 75 1009.0
20260507045413 32 203 0.0 9.7 0.00 0.00 0.00 77 1009.0
20260507044913 32 203 3.2 9.7 0.00 0.00 0.00 77 1009.0
20260507044413 32 131 0.0 6.4 0.00 0.00 0.00 79 1009.0
20260507043914 31 281 0.0 6.4 0.00 0.00 0.00 80 1009.0
20260507043415 31 274 0.0 6.4 0.00 0.00 0.00 80 1009.0
20260507042914 32 276 0.0 8.0 0.00 0.00 0.00 80 1009.0
20260507042415 32 276 0.0 9.7 0.00 0.00 0.00 78 1009.0
20260507041915 32 248 0.0 9.7 0.00 0.00 0.00 78 1009.0
20260507041415 32 243 1.6 4.8 0.00 0.00 0.00 77 1009.0
20260507040913 32 229 0.0 0.0 0.00 0.00 0.00 78 1009.0
20260507040413 32 259 0.0 4.8 0.00 0.00 0.00 77 1009.0
20260507035914 32 195 0.0 4.8 0.00 0.00 0.00 79 1009.0
20260507035417 32 210 0.0 8.0 0.00 0.00 0.00 79 1009.0
20260507034450 31 158 4.8 4.8 0.00 0.00 0.00 82 1009.0
20260507033913 31 276 0.0 0.0 0.00 0.00 0.00 83 1009.0
20260507033413 31 127 0.0 3.2 0.00 0.00 0.00 82 1009.0
20260507032914 31 148 0.0 8.0 0.00 0.00 0.00 83 1009.0
20260507032414 31 203 0.0 8.0 0.00 0.00 0.00 83 1009.0
20260507031914 31 276 1.6 4.8 0.00 0.00 0.00 83 1009.0
20260507031415 31 134 0.0 1.6 0.00 0.00 0.00 83 1009.0
20260507030915 31 255 0.0 3.2 0.00 0.00 0.00 83 1009.0
20260507030416 31 136 0.0 3.2 0.00 0.00 0.00 86 1009.0
20260507025913 30 286 0.0 0.0 0.00 0.00 0.00 86 1009.0
20260507025416 30 260 0.0 0.0 0.00 0.00 0.00 86 1009.0
20260507024914 30 249 0.0 1.6 0.00 0.00 0.00 86 1009.0
20260507024415 30 254 0.0 1.6 0.00 0.00 0.00 86 1009.0
20260507023915 30 236 0.0 4.8 0.00 0.00 0.00 87 1009.0
20260507023417 30 226 0.0 4.8 0.00 0.00 0.00 86 1009.0
20260507022915 30 240 0.0 0.0 0.00 0.00 0.00 86 1009.0
20260507022417 30 146 0.0 0.0 0.00 0.00 0.00 87 1009.0
20260507021915 30 155 0.0 0.0 0.00 0.00 0.00 87 1009.0
20260507021416 30 278 0.0 0.0 0.00 0.00 0.00 88 1009.0
20260507020916 29 278 0.0 1.6 0.00 0.00 0.00 89 1009.0
20260507020416 29 277 0.0 1.6 0.00 0.00 0.00 89 1009.0
20260507015917 28 298 0.0 0.0 0.00 0.00 0.00 90 1009.0
20260507015413 28 333 0.0 1.6 0.00 0.00 0.00 90 1008.0
20260507014917 28 297 0.0 1.6 0.00 0.00 0.00 91 1008.0
20260507014417 28 282 0.0 1.6 0.00 0.00 0.00 91 1008.0
20260507013916 28 282 0.0 0.0 0.00 0.00 0.00 91 1008.0
20260507013415 28 295 0.0 0.0 0.00 0.00 0.00 91 1008.0
20260507012917 28 295 0.0 0.0 0.00 0.00 0.00 91 1008.0
20260507012415 28 295 0.0 0.0 0.00 0.00 0.00 91 1008.0
20260507011917 28 295 0.0 0.0 0.00 0.00 0.00 91 1008.0
20260507011415 28 277 0.0 0.0 0.00 0.00 0.00 91 1008.0
20260507010913 28 281 0.0 3.2 0.00 0.00 0.00 91 1008.0
20260507010417 28 268 0.0 3.2 0.00 0.00 0.00 91 1008.0
20260507005917 28 231 0.0 0.0 0.00 0.00 0.00 91 1008.0
20260507005415 28 231 0.0 0.0 0.00 0.00 0.00 91 1008.0
20260507004914 28 231 0.0 0.0 0.00 0.00 0.00 91 1008.0
20260507004415 28 231 0.0 0.0 0.00 0.00 0.00 91 1008.0
20260507003914 28 231 0.0 0.0 0.00 0.00 0.00 91 1007.0
20260507003414 28 231 0.0 0.0 0.00 0.00 0.00 91 1007.0
20260507002915 28 229 0.0 3.2 0.00 0.00 0.00 91 1007.0
20260507002417 28 229 0.0 3.2 0.00 0.00 0.00 91 1007.0
20260507001915 28 229 0.0 0.0 0.00 0.00 0.00 91 1007.0
20260507001417 28 229 0.0 0.0 0.00 0.00 0.00 91 1007.0
20260507000916 28 229 0.0 0.0 0.00 0.00 0.00 91 1007.0
20260507000420 28 229 0.0 0.0 0.00 0.00 0.00 91 1007.0
20260506235918 28 229 0.0 0.0 0.00 0.00 0.00 91 1007.0
20260506235416 28 229 0.0 0.0 0.00 0.00 0.00 91 1007.0
20260506234915 28 229 0.0 0.0 0.00 0.00 0.00 91 1007.0
20260506234417 28 229 0.0 0.0 0.00 0.00 0.00 91 1007.0
20260506233914 28 229 0.0 0.0 0.00 0.00 0.00 91 1007.0
20260506233415 28 229 0.0 0.0 0.00 0.00 0.00 91 1007.0
20260506232913 28 246 0.0 0.0 0.00 0.00 0.00 91 1007.0
20260506232415 28 245 0.0 0.0 0.00 0.00 0.00 91 1007.0
20260506231917 28 224 0.0 0.0 0.00 0.00 0.00 91 1007.0
20260506231414 28 224 0.0 0.0 0.00 0.00 0.00 91 1007.0
20260506230914 28 224 0.0 0.0 0.00 0.00 0.00 91 1007.0
20260506230415 27 224 0.0 0.0 0.00 0.00 0.00 91 1007.0
20260506225915 27 224 0.0 3.2 0.00 0.00 0.00 91 1007.0
20260506225415 27 232 0.0 3.2 0.00 0.00 0.00 91 1007.0
20260506224915 28 255 0.0 0.0 0.00 0.00 0.00 91 1006.0
20260506224413 28 255 0.0 0.0 0.00 0.00 0.00 91 1007.0
20260506223915 28 227 0.0 0.0 0.00 0.00 0.00 91 1006.0